This demonstration page uses our WeatherBlox Daily Observations layout. Learn more.

Left ArrowRight Arrow

Hourly Observations for July 9, 2018

Temp ( °F °C ) Dew Point ( °F °C ) Humidity (%) Winds ( mph kmh ) Pressure ( in mb ) Visibility ( mi km ) Precip ( " mm )
12:53 am 00:53 Clear 72 22.2 63 17.2 73 73 S 3 6 30.11 1020 10 16 0.00 0.00
1:53 am 01:53 Clear 70 21.1 62 16.7 76 76 S 5 7 30.11 1020 10 16 0.00 0.00
2:53 am 02:53 Clear 71 21.7 60 15.6 68 68 S 8 13 30.11 1020 10 16 0.00 0.00
3:53 am 03:53 Clear 69 20.6 60 15.6 73 73 SSW 8 13 30.11 1020 10 16 0.00 0.00
4:53 am 04:53 Clear 66 18.9 61 16.1 84 84 SW 3 6 30.12 1020 10 16 0.00 0.00
5:53 am 05:53 Clear 66 18.9 60 15.6 81 81 SW 5 7 30.13 1020 10 16 0.00 0.00
6:53 am 06:53 Sunny 66 18.9 60 15.6 81 81 SSW 5 7 30.16 1021 10 16 0.00 0.00
7:53 am 07:53 Sunny 70 21.1 61 16.1 73 73 SW 6 9 30.17 1022 10 16 0.00 0.00
8:53 am 08:53 Sunny 74 23.3 64 17.8 71 71 SW 6 9 30.19 1022 10 16 0.00 0.00
9:53 am 09:53 Sunny 79 26.1 67 19.4 67 67 SW 8 13 30.19 1022 10 16 0.00 0.00
10:53 am 10:53 Sunny 82 27.8 68 20 63 63 SSW 9 15 30.19 1022 10 16 0.00 0.00
11:53 am 11:53 Sunny 84 28.9 69 20.6 61 61 SSW 9 15 30.19 1022 10 16 0.00 0.00
12:53 pm 12:53 Sunny 86 30 67 19.4 53 53 SSW 9 15 30.19 1022 10 16 0.00 0.00
1:53 pm 13:53 Sunny 88 31.1 67 19.4 50 50 SSW 8 13 30.17 1022 10 16 0.00 0.00
2:53 pm 14:53 Sunny 88 31.1 67 19.4 50 50 VRB 5 7 30.16 1021 10 16 0.00 0.00
3:53 pm 15:53 Sunny 90 32.2 64 17.8 42 42 S 6 9 30.15 1021 10 16 0.00 0.00
4:53 pm 16:53 Sunny 90 32.2 65 18.3 44 44 S 7 11 30.14 1021 10 16 0.00 0.00
5:53 pm 17:53 Sunny 90 32.2 62 16.7 39 39 SSE 8 13 30.14 1021 10 16 0.00 0.00
6:53 pm 18:53 Sunny 89 31.7 61 16.1 39 39 VRB 6 9 30.12 1020 10 16 0.00 0.00
7:53 pm 19:53 Sunny 85 29.4 68 20 57 57 ESE 7 11 30.13 1020 10 16 0.00 0.00
8:53 pm 20:53 Sunny 82 27.8 66 18.9 58 58 ESE 6 9 30.13 1020 10 16 0.00 0.00
9:53 pm 21:53 Clear 80 26.7 65 18.3 60 60 SSE 6 9 30.14 1021 10 16 0.00 0.00
10:53 pm 22:53 Clear 81 27.2 64 17.8 57 57 SSE 6 9 30.14 1021 10 16 0.00 0.00
11:53 pm 23:53 Clear 78 25.6 66 18.9 67 67 SSE 5 7 30.14 1021 10 16 0.00 0.00

Powered by AerisWeather